Theta_e
309 308 308 308 309 310 310 311 313 313 313 313 313 314 315 316 318 325 330 331 332 330 327 333 337 338 340 342 341 341 350 352 349 343 344 342 342 342 345 346 343 337 342 341 338
309 308 308 309 309 310 311 312 314 316 316 315 314 314 315 316 320 328 330 329 329 328 331 338 335 337 340 342 342 345 350 345 340 340 341 342 343 342 348 346 343 341 338 337 338
309 309 309 309 309 310 311 313 315 316 317 317 315 314 315 316 329 333 329 329 328 327 332 334 334 336 339 339 338 341 340 340 340 339 341 341 342 345 345 347 343 341 339 340 341
309 309 308 309 309 310 311 313 316 317 317 318 316 315 315 320 334 332 328 330 328 328 334 335 336 337 337 337 337 340 338 340 340 341 342 342 342 346 346 344 342 340 340 342 343
309 308 309 309 309 310 311 314 316 318 318 318 317 315 317 329 332 330 330 330 328 330 334 335 336 335 336 336 337 339 338 340 341 341 339 341 343 345 345 343 339 341 341 342 343
309 309 309 309 309 310 311 314 317 318 319 319 318 315 321 328 334 332 332 330 332 334 335 335 335 335 335 335 337 338 344 342 341 340 341 345 345 346 347 343 340 341 342 343 344
309 309 309 309 310 310 312 313 317 318 319 320 318 316 325 329 334 335 334 333 334 334 335 334 334 335 335 335 337 342 344 343 342 340 340 343 344 349 346 344 343 342 342 342 341
309 309 309 310 310 310 313 314 317 319 318 318 317 323 327 329 331 334 334 334 334 333 333 334 334 334 335 337 338 341 340 346 342 340 342 344 347 343 346 346 345 344 343 342 343
308 308 309 310 310 311 314 315 317 319 318 318 320 325 330 329 330 332 334 335 334 334 334 334 333 334 335 339 339 341 345 343 342 340 338 343 352 347 346 346 346 345 344 342 341
308 308 309 310 310 311 315 319 319 320 322 324 325 328 328 329 329 331 333 334 334 335 335 335 335 336 337 340 343 341 342 340 339 340 341 342 348 346 344 343 344 346 342 341 342
307 308 308 310 311 312 316 321 325 326 323 325 326 328 329 330 330 333 333 333 333 334 335 335 336 336 338 335 334 335 335 337 340 340 343 343 343 346 344 343 343 341 342 342 343
306 307 307 309 311 315 318 322 320 321 323 325 326 327 329 330 331 332 332 333 334 334 335 335 336 337 337 335 334 334 336 337 338 335 340 342 344 344 345 344 343 343 343 342 344
305 306 307 309 313 318 320 319 318 320 324 326 326 326 327 329 329 332 333 333 333 335 334 336 336 337 337 334 334 335 335 334 335 334 337 340 348 346 342 341 344 342 342 344 342
305 305 306 308 316 318 321 319 319 323 328 326 325 326 327 330 329 332 333 333 333 334 334 334 335 335 335 334 334 336 334 333 333 339 344 342 355 352 348 345 344 346 348 342 341
304 305 306 307 313 321 321 318 319 325 338 328 326 327 328 329 330 332 333 333 332 333 333 334 334 334 335 334 333 335 333 333 339 338 343 345 344 351 342 341 340 343 340 340 339
305 305 305 312 315 320 321 321 323 330 339 326 326 326 328 328 329 332 332 331 331 331 332 333 334 333 333 332 332 334 336 339 343 344 351 346 347 354 349 346 342 341 335 335 336
304 306 305 307 315 317 321 325 332 336 333 329 326 326 327 328 329 331 331 331 330 330 331 332 333 333 333 333 333 335 339 340 344 355 349 344 346 349 343 341 341 335 336 336 336
304 307 310 314 316 318 323 330 337 336 334 328 327 326 327 329 328 329 330 331 331 330 331 333 335 334 333 332 333 333 335 340 345 343 340 342 351 346 341 338 339 335 337 337 337
303 312 316 319 321 322 326 334 340 337 332 329 326 325 326 329 329 329 330 331 332 332 334 334 336 334 333 333 333 334 334 336 343 337 341 348 348 346 341 343 342 339 339 339 339
303 313 317 318 323 324 327 329 333 334 331 330 326 327 328 329 329 330 330 331 331 332 333 333 336 336 334 333 333 333 335 341 339 348 346 349 350 352 345 345 344 343 340 340 339
311 322 321 322 325 327 329 329 331 330 329 331 331 330 330 330 330 329 330 330 331 331 331 332 336 336 334 333 334 334 336 339 342 345 345 345 341 343 341 341 342 341 340 340 338
316 319 324 323 326 327 328 329 324 328 329 331 335 337 333 332 329 329 330 331 330 330 330 332 341 335 334 335 337 336 338 337 340 345 345 346 345 340 340 341 339 339 341 341 337
319 319 320 323 324 326 327 328 328 328 331 331 332 334 335 335 334 330 332 332 331 330 338 336 332 334 337 336 338 336 336 341 338 346 347 339 347 343 340 338 339 342 342 341 337
318 319 320 322 324 328 331 332 327 328 331 334 336 334 335 335 336 337 333 333 331 333 332 344 342 339 339 337 334 338 338 336 336 339 338 336 337 346 344 342 349 344 341 338 336
316 320 323 322 322 325 329 333 328 331 330 333 334 335 334 335 335 335 333 337 334 335 334 335 338 335 335 334 335 333 332 332 334 335 338 338 338 346 345 347 345 345 341 336 336
319 320 328 326 331 331 326 331 332 329 332 332 335 333 334 337 340 347 347 348 338 338 336 342 343 338 336 335 334 332 335 334 333 334 336 339 339 343 339 335 341 343 342 337 337
315 319 321 326 325 329 329 329 330 331 331 334 339 336 337 343 343 341 339 341 345 345 342 351 347 348 340 340 338 341 342 342 340 340 337 336 338 344 345 340 336 336 342 338 337
Wind_Speed
27 27 27 27 26 25 26 21 17 15 15 15 14 14 16 18 19 14 10 1 5 6 9 13 15 16 17 18 19 25 4 11 26 12 14 10 8 11 31 36 17 12 19 19 16
28 29 28 28 28 26 27 19 16 16 16 15 15 14 15 18 20 20 10 6 5 6 9 18 14 7 13 19 9 7 8 11 7 11 7 9 13 9 16 22 2 8 18 18 15
28 29 31 30 29 29 27 19 17 18 16 15 14 14 14 15 11 9 9 2 5 7 10 19 16 15 7 11 4 4 5 13 11 6 6 11 11 19 11 12 16 12 17 15 14
29 30 31 30 29 31 26 19 20 19 15 14 13 12 14 7 4 6 8 3 5 6 13 23 15 15 12 13 5 7 7 7 10 4 10 13 9 14 10 11 19 16 16 13 12
29 32 31 30 30 33 23 20 21 17 14 12 11 10 9 9 17 9 8 4 7 6 15 17 16 12 13 13 6 13 9 13 2 11 9 3 10 7 10 9 4 17 12 12 10
30 32 32 32 31 34 22 21 20 15 13 11 9 8 6 15 9 9 10 6 11 13 17 15 10 13 15 11 10 18 29 31 19 5 11 6 13 2 7 8 7 11 12 11 11
31 32 33 32 32 35 22 21 16 12 10 6 7 5 11 17 5 10 10 9 11 14 11 19 14 14 19 14 18 28 19 5 32 14 11 16 18 13 2 7 11 10 5 2 5
31 33 34 33 33 34 22 22 13 9 6 2 5 4 8 20 12 10 11 12 12 13 14 16 17 14 18 18 16 10 11 7 28 18 9 16 6 31 18 9 9 9 10 7 5
32 33 33 33 33 31 24 22 11 9 6 3 4 8 15 10 12 12 13 14 17 13 16 15 14 16 19 20 12 3 7 12 22 27 27 2 14 23 16 8 10 8 6 8 7
32 33 34 33 33 26 25 21 10 10 7 6 14 8 17 13 16 19 16 13 12 10 14 16 14 15 2 8 16 12 20 19 7 7 23 7 18 14 9 10 8 7 7 9 8
32 33 35 33 33 19 25 12 4 5 12 11 11 16 13 20 17 13 13 11 14 15 15 17 16 2 28 9 12 14 16 16 9 13 17 12 10 6 15 8 8 5 9 7 7
33 33 35 33 32 14 17 8 8 10 9 16 18 18 16 8 9 13 19 12 13 14 17 17 8 12 24 12 15 14 16 14 12 13 7 10 11 16 22 19 8 11 10 9 9
32 33 34 33 23 10 12 6 10 12 6 13 17 15 8 12 16 16 18 14 17 16 16 17 9 10 20 12 16 16 13 15 17 20 5 14 15 11 6 24 23 12 5 10 2
32 32 32 36 9 20 9 8 10 9 5 12 20 16 17 15 17 19 19 14 18 15 16 16 14 10 7 14 17 14 19 20 19 18 10 20 4 7 9 13 21 21 35 11 8
32 30 29 22 16 10 11 13 11 5 5 17 19 9 16 17 17 16 4 9 16 17 9 13 17 16 10 12 15 15 18 15 12 11 7 9 1 3 5 6 23 15 7 4 5
31 29 30 11 13 16 15 14 10 6 8 8 11 13 19 18 20 13 16 12 12 13 16 20 14 17 9 12 14 11 14 2 10 4 7 6 8 3 9 9 18 7 5 2 4
33 28 30 18 9 12 14 12 6 8 7 11 16 16 18 19 20 13 9 13 12 12 14 19 19 17 12 9 18 10 14 9 4 2 5 8 8 8 17 16 23 10 10 4 6
34 29 22 19 12 13 12 8 7 13 8 5 9 15 19 16 18 20 11 15 16 16 15 16 8 10 6 4 8 13 13 7 14 10 14 7 2 3 14 21 23 5 8 5 10
34 18 16 16 11 8 7 9 7 11 5 1 9 12 16 17 11 16 15 14 12 18 12 13 9 10 5 5 12 7 10 13 15 14 4 8 8 11 6 17 24 12 11 8 6
23 16 18 15 9 8 7 13 15 8 7 9 8 10 14 18 14 10 16 16 13 13 8 13 9 9 8 3 11 12 9 7 5 11 7 7 6 6 9 20 14 24 12 9 3
9 6 6 9 7 6 9 16 11 4 5 9 11 9 13 11 13 13 8 10 11 10 9 8 6 13 16 9 13 4 4 1 3 3 2 2 6 6 4 5 14 25 5 8 8
8 6 13 11 6 8 13 21 6 9 7 10 7 11 7 2 5 9 12 6 9 1 10 10 6 9 15 9 14 10 13 12 4 5 4 3 3 13 19 20 24 16 8 9 4
4 9 10 11 7 11 16 21 7 10 11 9 7 9 5 2 4 5 8 7 4 2 2 5 2 7 15 11 3 6 7 18 6 5 12 11 2 19 23 20 20 11 11 11 12
5 4 8 8 11 16 17 14 14 12 9 6 10 4 4 8 3 4 4 6 5 1 2 6 5 8 11 14 10 8 16 16 4 4 10 12 12 8 10 13 22 6 7 10 10
4 6 6 7 12 16 16 16 13 9 11 10 9 11 10 5 10 11 8 11 8 6 2 1 5 11 15 19 18 15 14 16 14 10 11 12 15 14 8 7 11 6 11 4 11
4 5 7 11 10 11 13 12 15 13 11 13 11 13 14 7 4 11 15 12 7 6 8 5 7 12 16 18 17 19 19 13 16 13 9 13 12 3 6 8 11 27 11 7 12
10 11 4 9 11 9 9 14 16 16 4 11 11 8 6 9 10 5 6 5 3 5 6 7 7 8 15 18 13 14 7 18 13 15 16 14 13 7 6 4 15 18 10 8 12
Wind_Direction
8 6 8 2 359 352 347 342 335 330 321 314 310 308 308 313 305 297 266 13 226 283 282 263 241 251 248 254 99 56 56 218 247 110 173 222 120 82 62 32 20 51 103 117 135
5 2 4 360 355 352 345 339 334 328 318 310 306 303 306 312 308 277 251 233 253 268 258 263 310 273 260 254 174 108 220 230 22 28 14 40 101 125 97 122 281 294 100 119 146
1 358 359 360 353 350 344 337 332 327 315 305 299 297 301 319 287 237 178 196 258 255 276 290 274 267 272 306 20 357 71 18 46 353 354 62 67 93 83 128 180 146 125 139 150
358 356 358 356 352 348 342 336 333 326 314 303 290 288 296 302 278 122 143 149 239 249 275 275 269 275 291 293 90 211 78 65 49 27 34 31 78 96 91 65 184 128 136 149 175
355 352 354 354 350 347 341 336 333 324 309 301 282 284 299 240 254 155 146 156 238 231 269 290 301 354 330 337 13 325 38 27 117 72 30 309 54 76 91 103 101 126 150 177 167
353 350 351 351 349 346 340 336 334 325 310 292 270 272 261 256 115 144 154 177 235 229 271 286 333 332 295 321 335 23 37 8 335 14 92 54 26 13 110 140 158 138 187 175 144
349 348 349 349 347 345 336 335 332 327 325 291 251 253 266 246 153 178 182 212 232 262 284 306 333 314 307 306 51 82 64 281 284 279 108 78 26 305 48 189 157 193 181 166 178
346 345 345 346 345 343 332 333 318 333 329 290 244 246 258 240 245 206 209 235 247 265 271 281 293 304 279 54 27 46 4 131 274 271 147 99 204 250 253 177 172 201 189 182 166
344 342 343 344 342 341 329 328 299 279 311 267 250 219 245 201 222 236 229 236 245 236 259 273 279 274 282 18 350 275 223 199 234 350 324 90 180 220 187 194 159 185 181 204 169
341 340 340 342 341 338 329 328 293 272 272 254 262 248 268 220 212 226 225 243 287 265 256 251 256 257 244 166 242 228 237 234 110 212 322 48 104 136 146 163 175 192 176 169 225
339 338 337 339 338 334 332 328 226 204 230 232 169 226 205 229 201 201 214 220 243 261 274 267 258 32 298 338 339 312 320 348 112 154 191 60 89 150 164 144 151 187 175 210 216
336 336 336 336 334 319 316 328 20 333 295 272 264 238 261 337 206 225 229 222 245 250 259 255 266 8 310 317 304 291 309 346 308 1 11 101 64 41 29 322 183 203 170 240 199
334 335 336 334 329 314 324 5 327 327 268 259 230 238 231 224 245 206 213 220 246 243 256 275 269 195 248 296 300 317 318 346 332 325 330 12 59 51 50 293 316 325 222 174 299
331 334 336 337 314 326 305 341 328 339 272 218 200 219 220 211 228 245 200 228 244 256 268 273 281 267 300 293 283 308 347 331 329 360 46 1 67 81 238 283 320 93 256 179 141
327 331 329 336 301 305 347 323 329 275 259 141 184 189 211 208 218 222 244 219 252 275 259 268 288 314 280 316 333 315 322 319 21 10 350 352 24 257 306 249 246 266 100 109 208
322 326 323 328 285 267 304 315 288 236 241 158 136 187 197 206 228 209 202 229 271 271 278 287 286 289 275 283 302 301 288 227 51 26 340 205 175 270 228 235 254 167 97 206 228
318 318 310 289 265 315 311 291 235 246 120 154 180 193 202 198 222 211 192 220 230 241 250 257 252 246 255 312 285 237 299 317 270 38 237 238 233 185 221 241 278 157 165 123 22
318 314 300 270 266 285 294 265 257 246 217 83 190 190 202 202 208 224 217 239 213 244 274 287 335 267 164 251 318 317 299 310 321 327 350 177 97 232 275 306 288 161 121 81 55
323 315 270 265 244 248 263 244 245 345 38 205 222 186 200 208 202 216 210 252 240 210 245 283 317 149 198 307 300 321 319 345 333 289 326 68 4 306 316 277 282 182 116 102 95
326 298 262 249 197 224 245 254 297 308 329 296 225 210 195 204 195 221 214 218 246 279 193 268 311 286 120 220 267 246 294 329 335 316 19 145 207 228 188 237 328 337 136 115 197
298 262 134 165 179 228 238 239 270 87 309 267 276 222 235 198 200 215 229 242 198 246 243 264 270 289 314 279 277 197 230 253 301 314 12 294 125 125 93 161 273 248 148 138 96
279 253 154 179 214 233 245 243 284 281 258 255 278 297 251 65 181 219 220 208 64 258 281 232 228 269 281 333 36 29 336 302 311 336 219 213 166 191 181 207 224 249 134 81 54
262 262 208 203 238 237 242 255 243 256 254 236 256 283 346 136 209 255 108 76 77 219 8 291 259 259 264 236 44 316 270 258 248 229 276 304 100 196 205 214 238 196 127 142 108
280 257 220 209 247 279 287 268 235 213 276 288 295 244 236 262 174 258 212 118 139 183 54 13 300 270 288 316 300 219 235 269 288 255 288 294 333 102 103 77 314 130 132 88 92
248 258 316 211 225 237 253 285 234 207 211 214 248 250 234 239 231 204 252 134 160 150 198 204 263 272 278 284 291 301 289 283 290 287 277 321 336 70 81 148 230 184 103 137 106
285 302 342 284 304 280 228 249 273 235 214 220 228 234 248 232 346 17 11 23 166 145 208 185 265 264 279 283 281 279 290 279 277 292 306 323 300 220 202 64 101 264 139 140 84
263 299 268 288 240 263 241 233 249 256 270 254 318 253 254 32 6 12 348 341 334 315 214 190 253 265 270 287 320 305 301 351 346 338 329 332 335 239 291 156 213 252 152 111 102